Location: Chervonnoye
(48.6000°N, 34.4000°E)
Time: 04:52:23
(UTC+00:00)

Okean O Rocket - Pass Details

Date: 23 November 2020
Orbit: 623 x 644 km, 98.2° (Epoch: 18 January)

Event Time Altitude Azimuth Distance (km) Brightness Sun altitude
Rises 15:03:22 0° 165° (SSE) 2,893 5.0 -11.2°
Reaches altitude 10° 15:05:32 10° 165° (SSE) 1,993 4.2 -11.5°
Maximum altitude 15:09:52 88° 249° (WSW) 634 1.6 -12.2°
Drops below altitude 10° 15:14:17 10° 345° (NNW) 2,019 4.2 -12.9°
Sets 15:16:29 0° 346° (NNW) 2,935 5.0 -13.3°
